Location: Karcze
(52.0945°N, 22.4786°E)
Time: 20:33:39
(UTC+00:00)

Transit 2A Rocket - Pass Details

Date: 05 August 2021
Orbit: 586 x 917 km, 66.7° (Epoch: 27 September)

Event Time Altitude Azimuth Distance (km) Brightness Sun altitude
Rises 17:55:55 0° 319° (NW) 3,168 9.7 1.5°
Reaches altitude 10° 17:58:30 10° 331° (NNW) 2,300 8.5 1.2°
Maximum altitude 18:03:07 29° 31° (NNE) 1,442 6.5 0.5°
Drops below altitude 10° 18:08:05 10° 91° (E) 2,481 7.1 -0.1°
Sets 18:10:58 0° 102° (ESE) 3,460 7.7 -0.5°
